Time,TemperatureF,DewpointF,PressureIn,WindDirection,WindDirectionDegrees,WindSpeedMPH,WindSpeedGustMPH,Humidity,HourlyPrecipIn,Conditions,Clouds,dailyrainin,SoftwareType,DateUTC
2013-02-02 00:02:00,24.0,20.0,30.40,NNE,15,0.0,-999.0,84,-99.99,,,0.00,,2013-02-02 06:02:00,
2013-02-02 00:12:00,24.0,20.0,30.40,NNE,15,0.0,-999.0,84,-99.99,,,0.00,,2013-02-02 06:12:00,
2013-02-02 00:21:00,24.0,20.0,30.40,NNE,15,0.0,-999.0,85,-99.99,,,0.00,,2013-02-02 06:21:00,
2013-02-02 00:31:00,25.0,22.0,30.40,NNE,15,0.0,-999.0,87,-99.99,,,0.00,,2013-02-02 06:31:00,
2013-02-02 00:41:00,25.0,22.0,30.40,NNE,15,0.0,-999.0,87,-99.99,,,0.00,,2013-02-02 06:41:00,
2013-02-02 00:52:00,25.0,21.0,30.40,NNE,15,0.0,-999.0,86,-99.99,,,0.00,,2013-02-02 06:52:00,
2013-02-02 01:02:00,25.0,21.0,30.40,NNE,15,0.0,-999.0,86,-99.99,,,0.00,,2013-02-02 07:02:00,
2013-02-02 01:12:00,25.0,21.0,30.40,NNE,15,0.0,-999.0,86,-99.99,,,0.00,,2013-02-02 07:12:00,
2013-02-02 01:21:00,25.0,21.0,30.40,NNE,15,0.0,-999.0,86,-99.99,,,0.00,,2013-02-02 07:21:00,
2013-02-02 01:31:00,25.0,22.0,30.39,NNE,18,0.0,-999.0,87,-99.99,,,0.00,,2013-02-02 07:31:00,
2013-02-02 01:42:00,25.0,22.0,30.39,NNE,18,0.0,-999.0,87,-99.99,,,0.00,,2013-02-02 07:42:00,
2013-02-02 01:52:00,24.0,21.0,30.38,NNE,18,0.0,-999.0,87,-99.99,,,0.00,,2013-02-02 07:52:00,
2013-02-02 02:01:00,24.0,21.0,30.38,NNE,18,0.0,-999.0,87,-99.99,,,0.00,,2013-02-02 08:01:00,
2013-02-02 02:11:00,24.0,21.0,30.38,NNE,18,0.0,-999.0,87,-99.99,,,0.00,,2013-02-02 08:11:00,
2013-02-02 02:21:00,24.0,20.0,30.37,NNE,26,0.0,-999.0,86,-99.99,,,0.00,,2013-02-02 08:21:00,
2013-02-02 02:31:00,25.0,21.0,30.37,NNE,27,0.0,-999.0,85,-99.99,,,0.00,,2013-02-02 08:31:00,
2013-02-02 02:42:00,25.0,21.0,30.37,NNE,27,0.0,-999.0,85,-99.99,,,0.00,,2013-02-02 08:42:00,
2013-02-02 02:53:00,26.0,21.0,30.37,ENE,58,0.0,-999.0,81,-99.99,,,0.00,,2013-02-02 08:53:00,
2013-02-02 03:01:00,25.0,20.0,30.37,ESE,117,0.0,-999.0,82,-99.99,,,0.00,,2013-02-02 09:01:00,
2013-02-02 03:11:00,25.0,20.0,30.37,ESE,117,0.0,-999.0,82,-99.99,,,0.00,,2013-02-02 09:11:00,
2013-02-02 03:22:00,26.0,20.0,30.37,ESE,113,0.0,-999.0,79,-99.99,,,0.00,,2013-02-02 09:22:00,
2013-02-02 03:31:00,26.0,20.0,30.37,ESE,113,0.0,-999.0,79,-99.99,,,0.00,,2013-02-02 09:31:00,
2013-02-02 03:41:00,26.0,20.0,30.37,ESE,113,0.0,-999.0,79,-99.99,,,0.00,,2013-02-02 09:41:00,
2013-02-02 03:52:00,27.0,20.0,30.36,East,93,0.0,-999.0,75,-99.99,,,0.00,,2013-02-02 09:52:00,
2013-02-02 04:01:00,27.0,20.0,30.36,East,93,0.0,-999.0,75,-99.99,,,0.00,,2013-02-02 10:01:00,
2013-02-02 04:11:00,27.0,20.0,30.36,East,93,0.0,-999.0,75,-99.99,,,0.00,,2013-02-02 10:11:00,
2013-02-02 04:21:00,28.0,21.0,30.36,ESE,118,0.0,-999.0,74,-99.99,,,0.00,,2013-02-02 10:21:00,
2013-02-02 04:31:00,28.0,21.0,30.36,ESE,118,0.0,-999.0,74,-99.99,,,0.00,,2013-02-02 10:31:00,
2013-02-02 04:42:00,28.0,21.0,30.36,ESE,118,0.0,-999.0,74,-99.99,,,0.00,,2013-02-02 10:42:00,
2013-02-02 04:51:00,28.0,21.0,30.36,ESE,122,0.0,-999.0,76,-99.99,,,0.00,,2013-02-02 10:51:00,
2013-02-02 05:01:00,28.0,21.0,30.35,SSE,149,0.0,-999.0,76,-99.99,,,0.00,,2013-02-02 11:01:00,
2013-02-02 05:11:00,28.0,21.0,30.35,SSE,149,0.0,-999.0,76,-99.99,,,0.00,,2013-02-02 11:11:00,
2013-02-02 05:21:00,28.0,21.0,30.35,South,172,1.0,-999.0,75,-99.99,,,0.00,,2013-02-02 11:21:00,
2013-02-02 05:32:00,28.0,21.0,30.35,SSE,154,1.0,-999.0,75,-99.99,,,0.00,,2013-02-02 11:32:00,
2013-02-02 05:42:00,28.0,21.0,30.35,SSE,154,1.0,-999.0,75,-99.99,,,0.00,,2013-02-02 11:42:00,
2013-02-02 05:52:00,28.0,20.0,30.34,SE,139,1.0,-999.0,73,-99.99,,,0.00,,2013-02-02 11:52:00,
2013-02-02 06:01:00,29.0,21.0,30.33,SSE,167,1.0,-999.0,72,-99.99,,,0.00,,2013-02-02 12:01:00,
2013-02-02 06:11:00,29.0,21.0,30.33,SSE,167,1.0,-999.0,72,-99.99,,,0.00,,2013-02-02 12:11:00,
2013-02-02 06:22:00,29.0,20.0,30.33,SSE,154,1.0,-999.0,70,-99.99,,,0.00,,2013-02-02 12:22:00,
2013-02-02 06:32:00,29.0,20.0,30.33,SSE,153,1.0,-999.0,68,-99.99,,,0.00,,2013-02-02 12:32:00,
2013-02-02 06:42:00,29.0,20.0,30.33,SSE,153,1.0,-999.0,68,-99.99,,,0.00,,2013-02-02 12:42:00,
2013-02-02 06:52:00,29.0,20.0,30.33,ESE,122,1.0,-999.0,68,-99.99,,,0.00,,2013-02-02 12:52:00,
2013-02-02 07:03:00,29.0,20.0,30.34,South,178,1.0,-999.0,68,-99.99,,,0.00,,2013-02-02 13:03:00,
2013-02-02 07:11:00,29.0,20.0,30.34,South,178,1.0,-999.0,68,-99.99,,,0.00,,2013-02-02 13:11:00,
2013-02-02 07:21:00,30.0,21.0,30.33,SSE,162,1.0,-999.0,68,-99.99,,,0.00,,2013-02-02 13:21:00,
2013-02-02 07:32:00,30.0,21.0,30.33,SSW,197,2.0,-999.0,69,-99.99,,,0.00,,2013-02-02 13:32:00,
2013-02-02 07:42:00,30.0,21.0,30.33,SSW,197,2.0,-999.0,69,-99.99,,,0.00,,2013-02-02 13:42:00,
2013-02-02 07:52:00,31.0,21.0,30.34,SSE,153,1.0,-999.0,66,-99.99,,,0.00,,2013-02-02 13:52:00,
2013-02-02 08:02:00,31.0,21.0,30.34,SW,220,1.0,-999.0,65,-99.99,,,0.00,,2013-02-02 14:02:00,
2013-02-02 08:11:00,31.0,21.0,30.34,SW,220,1.0,-999.0,65,-99.99,,,0.00,,2013-02-02 14:11:00,
2013-02-02 08:22:00,32.0,21.0,30.34,SE,139,1.0,-999.0,64,-99.99,,,0.00,,2013-02-02 14:22:00,
2013-02-02 08:32:00,32.0,22.0,30.38,North,354,0.0,-999.0,67,-99.99,,,0.00,,2013-02-02 14:32:00,
2013-02-02 08:42:00,32.0,22.0,30.38,North,354,0.0,-999.0,67,-99.99,,,0.00,,2013-02-02 14:42:00,
2013-02-02 08:52:00,32.0,23.0,30.40,NE,48,4.0,-999.0,68,-99.99,,,0.00,,2013-02-02 14:52:00,
2013-02-02 09:03:00,32.0,23.0,30.35,SE,135,3.0,-999.0,69,-99.99,,,0.00,,2013-02-02 15:03:00,
2013-02-02 09:12:00,32.0,23.0,30.35,SE,135,3.0,-999.0,69,-99.99,,,0.00,,2013-02-02 15:12:00,
2013-02-02 09:22:00,33.0,26.0,30.39,NW,324,1.0,-999.0,74,-99.99,,,0.00,,2013-02-02 15:22:00,
2013-02-02 09:32:00,33.0,25.0,30.34,SE,133,1.0,-999.0,72,-99.99,,,0.00,,2013-02-02 15:32:00,
2013-02-02 09:42:00,33.0,25.0,30.34,SE,133,1.0,-999.0,72,-99.99,,,0.00,,2013-02-02 15:42:00,
2013-02-02 09:52:00,33.0,24.0,30.36,SSE,162,0.0,-999.0,70,-99.99,,,0.00,,2013-02-02 15:52:00,
2013-02-02 10:03:00,33.0,24.0,30.36,SSE,162,0.0,-999.0,70,-99.99,,,0.00,,2013-02-02 16:03:00,
2013-02-02 10:11:00,33.0,24.0,30.36,SSE,162,0.0,-999.0,70,-99.99,,,0.00,,2013-02-02 16:11:00,
2013-02-02 10:22:00,33.0,26.0,30.32,SSE,154,3.0,-999.0,74,-99.99,,,0.00,,2013-02-02 16:22:00,
2013-02-02 10:32:00,34.0,27.0,30.32,SE,140,2.0,-999.0,74,-99.99,,,0.00,,2013-02-02 16:32:00,
2013-02-02 10:42:00,34.0,27.0,30.32,SE,140,2.0,-999.0,74,-99.99,,,0.00,,2013-02-02 16:42:00,
2013-02-02 10:52:00,34.0,27.0,30.30,SSE,149,2.0,-999.0,76,-99.99,,,0.00,,2013-02-02 16:52:00,
2013-02-02 11:02:00,35.0,28.0,30.29,SSE,166,3.0,-999.0,75,-99.99,,,0.00,,2013-02-02 17:02:00,
2013-02-02 11:11:00,35.0,28.0,30.29,SSE,166,3.0,-999.0,75,-99.99,,,0.00,,2013-02-02 17:11:00,
2013-02-02 11:22:00,35.0,28.0,30.29,SSE,166,3.0,-999.0,75,-99.99,,,0.00,,2013-02-02 17:22:00,
2013-02-02 11:32:00,37.0,29.0,30.29,South,181,1.0,-999.0,74,-99.99,,,0.00,,2013-02-02 17:32:00,
2013-02-02 11:42:00,37.0,29.0,30.29,South,181,1.0,-999.0,74,-99.99,,,0.00,,2013-02-02 17:42:00,
2013-02-02 11:52:00,38.0,28.0,30.28,SW,223,2.0,-999.0,67,-99.99,,,0.01,,2013-02-02 17:52:00,
2013-02-02 12:02:00,40.0,28.0,30.27,SW,220,4.0,-999.0,62,-99.99,,,0.01,,2013-02-02 18:02:00,
2013-02-02 12:12:00,40.0,28.0,30.27,SW,220,4.0,-999.0,62,-99.99,,,0.01,,2013-02-02 18:12:00,
2013-02-02 12:22:00,41.0,29.0,30.25,SW,220,2.0,-999.0,62,-99.99,,,0.01,,2013-02-02 18:22:00,
2013-02-02 12:32:00,41.0,29.0,30.24,SSW,195,1.0,-999.0,63,-99.99,,,0.01,,2013-02-02 18:32:00,
2013-02-02 12:42:00,41.0,29.0,30.24,SSW,195,1.0,-999.0,63,-99.99,,,0.01,,2013-02-02 18:42:00,
2013-02-02 12:52:00,42.0,30.0,30.22,South,169,1.0,-999.0,62,-99.99,,,0.01,,2013-02-02 18:52:00,
2013-02-02 13:02:00,42.0,32.0,30.21,South,190,1.0,-999.0,68,-99.99,,,0.01,,2013-02-02 19:02:00,
2013-02-02 13:12:00,42.0,32.0,30.21,South,190,1.0,-999.0,68,-99.99,,,0.01,,2013-02-02 19:12:00,
2013-02-02 13:21:00,42.0,32.0,30.20,SW,218,1.0,-999.0,68,-99.99,,,0.01,,2013-02-02 19:21:00,
2013-02-02 13:32:00,43.0,34.0,30.19,SW,223,1.0,-999.0,70,-99.99,,,0.01,,2013-02-02 19:32:00,
2013-02-02 13:42:00,43.0,34.0,30.19,SW,223,1.0,-999.0,70,-99.99,,,0.01,,2013-02-02 19:42:00,
2013-02-02 13:52:00,44.0,33.0,30.20,SSW,195,4.0,-999.0,65,-99.99,,,0.01,,2013-02-02 19:52:00,
2013-02-02 14:01:00,44.0,34.0,30.19,SW,229,2.0,-999.0,67,-99.99,,,0.01,,2013-02-02 20:01:00,
2013-02-02 14:11:00,44.0,34.0,30.19,SW,229,2.0,-999.0,67,-99.99,,,0.01,,2013-02-02 20:11:00,
2013-02-02 14:21:00,43.0,34.0,30.19,SW,228,3.0,-999.0,69,-99.99,,,0.01,,2013-02-02 20:21:00,
2013-02-02 14:32:00,43.0,37.0,30.19,SW,228,0.0,-999.0,79,-99.99,,,0.01,,2013-02-02 20:32:00,
2013-02-02 14:41:00,43.0,37.0,30.19,SW,228,0.0,-999.0,79,-99.99,,,0.01,,2013-02-02 20:41:00,
2013-02-02 14:52:00,42.0,37.0,30.18,SW,232,0.0,-999.0,83,-99.99,,,0.02,,2013-02-02 20:52:00,
2013-02-02 15:02:00,41.0,38.0,30.18,West,268,1.0,-999.0,88,-99.99,,,0.03,,2013-02-02 21:02:00,
2013-02-02 15:11:00,41.0,38.0,30.18,West,268,1.0,-999.0,88,-99.99,,,0.03,,2013-02-02 21:11:00,
2013-02-02 15:21:00,40.0,38.0,30.18,WSW,247,0.0,-999.0,91,-99.99,,,0.05,,2013-02-02 21:21:00,
2013-02-02 15:32:00,40.0,38.0,30.20,WSW,257,1.0,-999.0,92,-99.99,,,0.05,,2013-02-02 21:32:00,
2013-02-02 15:42:00,40.0,38.0,30.20,WSW,257,1.0,-999.0,92,-99.99,,,0.05,,2013-02-02 21:42:00,
2013-02-02 15:52:00,40.0,38.0,30.19,SW,226,3.0,-999.0,93,-99.99,,,0.06,,2013-02-02 21:52:00,
2013-02-02 16:02:00,40.0,38.0,30.19,SW,214,3.0,-999.0,93,-99.99,,,0.06,,2013-02-02 22:02:00,
2013-02-02 16:11:00,40.0,38.0,30.19,SW,214,3.0,-999.0,93,-99.99,,,0.06,,2013-02-02 22:11:00,
2013-02-02 16:21:00,41.0,39.0,30.19,SW,223,2.0,-999.0,93,-99.99,,,0.06,,2013-02-02 22:21:00,
2013-02-02 16:32:00,41.0,39.0,30.18,SSW,210,4.0,-999.0,93,-99.99,,,0.06,,2013-02-02 22:32:00,
2013-02-02 16:42:00,41.0,39.0,30.18,SSW,210,4.0,-999.0,93,-99.99,,,0.06,,2013-02-02 22:42:00,
2013-02-02 16:52:00,41.0,39.0,30.18,SW,217,1.0,-999.0,94,-99.99,,,0.06,,2013-02-02 22:52:00,
2013-02-02 17:01:00,41.0,39.0,30.17,SSW,213,2.0,-999.0,94,-99.99,,,0.06,,2013-02-02 23:01:00,
2013-02-02 17:11:00,41.0,39.0,30.17,SSW,213,2.0,-999.0,94,-99.99,,,0.06,,2013-02-02 23:11:00,
2013-02-02 17:21:00,41.0,39.0,30.17,SW,227,3.0,-999.0,94,-99.99,,,0.06,,2013-02-02 23:21:00,
2013-02-02 17:32:00,40.0,38.0,30.17,SSW,209,0.0,-999.0,94,-99.99,,,0.06,,2013-02-02 23:32:00,
2013-02-02 17:42:00,40.0,38.0,30.17,SSW,209,0.0,-999.0,94,-99.99,,,0.06,,2013-02-02 23:42:00,
2013-02-02 17:52:00,40.0,38.0,30.17,SSW,209,0.0,-999.0,94,-99.99,,,0.06,,2013-02-02 23:52:00,
2013-02-02 18:02:00,39.0,37.0,30.17,SSW,209,0.0,-999.0,93,-99.99,,,0.06,,2013-02-03 00:02:00,
2013-02-02 18:11:00,39.0,37.0,30.17,SSW,209,0.0,-999.0,93,-99.99,,,0.06,,2013-02-03 00:11:00,
2013-02-02 18:21:00,38.0,37.0,30.17,SSW,209,0.0,-999.0,95,-99.99,,,0.00,,2013-02-03 00:21:00,
2013-02-02 18:32:00,38.0,37.0,30.18,SSW,209,0.0,-999.0,95,-99.99,,,0.00,,2013-02-03 00:32:00,
2013-02-02 18:41:00,38.0,37.0,30.18,SSW,209,0.0,-999.0,95,-99.99,,,0.00,,2013-02-03 00:41:00,
2013-02-02 18:52:00,38.0,37.0,30.18,SSW,209,0.0,-999.0,95,-99.99,,,0.00,,2013-02-03 00:52:00,
2013-02-02 19:02:00,38.0,37.0,30.18,SSW,209,0.0,-999.0,95,-99.99,,,0.00,,2013-02-03 01:02:00,
2013-02-02 19:11:00,37.0,36.0,30.20,SSW,209,0.0,-999.0,95,-99.99,,,0.00,,2013-02-03 01:11:00,
2013-02-02 19:21:00,37.0,36.0,30.20,SSW,209,0.0,-999.0,95,-99.99,,,0.00,,2013-02-03 01:21:00,
2013-02-02 19:32:00,36.0,35.0,30.20,SSW,209,0.0,-999.0,95,-99.99,,,0.00,,2013-02-03 01:32:00,
2013-02-02 19:42:00,36.0,35.0,30.20,SSW,209,0.0,-999.0,95,-99.99,,,0.00,,2013-02-03 01:42:00,
2013-02-02 19:52:00,36.0,35.0,30.21,SSW,209,0.0,-999.0,95,-99.99,,,0.00,,2013-02-03 01:52:00,
2013-02-02 20:01:00,35.0,34.0,30.22,SSW,209,0.0,-999.0,95,-99.99,,,0.00,,2013-02-03 02:01:00,
2013-02-02 20:11:00,35.0,34.0,30.22,SSW,209,0.0,-999.0,95,-99.99,,,0.00,,2013-02-03 02:11:00,
2013-02-02 20:21:00,34.0,33.0,30.22,SSW,210,0.0,-999.0,95,-99.99,,,0.00,,2013-02-03 02:21:00,
2013-02-02 20:32:00,33.0,32.0,30.23,SSW,209,0.0,-999.0,96,-99.99,,,0.00,,2013-02-03 02:32:00,
2013-02-02 20:42:00,33.0,32.0,30.23,SSW,209,0.0,-999.0,96,-99.99,,,0.00,,2013-02-03 02:42:00,
2013-02-02 20:52:00,34.0,33.0,30.23,SSW,209,0.0,-999.0,96,-99.99,,,0.00,,2013-02-03 02:52:00,
2013-02-02 21:02:00,34.0,33.0,30.24,SSW,209,0.0,-999.0,97,-99.99,,,0.00,,2013-02-03 03:02:00,
2013-02-02 21:11:00,35.0,34.0,30.23,SSW,209,0.0,-999.0,97,-99.99,,,0.00,,2013-02-03 03:11:00,
2013-02-02 21:21:00,35.0,34.0,30.23,SSW,209,0.0,-999.0,97,-99.99,,,0.00,,2013-02-03 03:21:00,
2013-02-02 21:31:00,35.0,34.0,30.23,SSW,209,0.0,-999.0,97,-99.99,,,0.00,,2013-02-03 03:31:00,
2013-02-02 21:42:00,35.0,34.0,30.23,SSW,209,0.0,-999.0,97,-99.99,,,0.00,,2013-02-03 03:42:00,
2013-02-02 21:52:00,36.0,35.0,30.23,SSW,209,0.0,-999.0,97,-99.99,,,0.00,,2013-02-03 03:52:00,
2013-02-02 22:01:00,36.0,35.0,30.22,SSW,209,0.0,-999.0,97,-99.99,,,0.00,,2013-02-03 04:01:00,
2013-02-02 22:11:00,36.0,35.0,30.22,SSW,209,0.0,-999.0,97,-99.99,,,0.00,,2013-02-03 04:11:00,
2013-02-02 22:21:00,36.0,35.0,30.22,SSW,209,0.0,-999.0,97,-99.99,,,0.00,,2013-02-03 04:21:00,
2013-02-02 22:31:00,36.0,35.0,30.22,SSW,209,0.0,-999.0,97,-99.99,,,0.00,,2013-02-03 04:31:00,
2013-02-02 22:42:00,36.0,35.0,30.22,SSW,209,0.0,-999.0,97,-99.99,,,0.00,,2013-02-03 04:42:00,
2013-02-02 22:52:00,36.0,35.0,30.22,SSW,209,0.0,-999.0,97,-99.99,,,0.00,,2013-02-03 04:52:00,
2013-02-02 23:03:00,36.0,35.0,30.22,SSW,210,0.0,-999.0,97,-99.99,,,0.00,,2013-02-03 05:03:00,
2013-02-02 23:12:00,36.0,35.0,30.22,SSW,210,0.0,-999.0,97,-99.99,,,0.00,,2013-02-03 05:12:00,
2013-02-02 23:22:00,36.0,35.0,30.22,SSW,210,0.0,-999.0,97,-99.99,,,0.00,,2013-02-03 05:22:00,
2013-02-02 23:32:00,36.0,35.0,30.22,SSW,210,0.0,-999.0,98,-99.99,,,0.00,,2013-02-03 05:32:00,
2013-02-02 23:41:00,36.0,35.0,30.22,SSW,210,0.0,-999.0,98,-99.99,,,0.00,,2013-02-03 05:41:00,
2013-02-02 23:52:00,36.0,35.0,30.22,SSW,210,0.0,-999.0,98,-99.99,,,0.00,,2013-02-03 05:52:00,